sat.trackr.live / text

‹ back to catalog

STARLINK-32252

NORAD 60442 · 2024-144T

PAYLOAD ACTIVE UNKNOWN

§ Identity

Operator
Country
US
Launch date
2024-08-12
Launch site
AFETR
Launch vehicle
Mass (kg)
RCS (m²)

Purposes: comms

External: N2YO · Heavens-Above · Gunter

§ Orbital elements

Epoch: 2026-09-21T16:46:13.378944Z

Period
93.85 min
Inclination
53.1609°
Eccentricity
0.0001278
Mean motion
15.34389652 rev/d
Perigee alt
461.9 km
Apogee alt
463.6 km
Semi-major
6,840.9 km
B*
7.9092e-5
RAAN
22.1040°
Arg perigee
75.1802°
Mean anomaly
284.9342°
Rev number
11,942

§ Raw data

STARLINK-322521 60442U 24144T   26264.69876596  .00002296  00000+0  79092-4 0  99962 60442  53.1609  22.1040 0001278  75.1802 284.9342 15.34389652119427

JSON: /api/v1/satellites/60442 · /tle

For live sub-satellite position, see the globe view (requires WebGL).

§ Visibility from observer

Set your observer location to see the next 7 days of passes ≥ 10°. The values pass through the URL so the page stays shareable.

No JS? Fill the form by hand. The geolocation button needs JavaScript.